CBERS 2B

Satellite information

Favourite Embed

Satellite Type and Status

PAYLOADIN ORBIT

Key statistics

Satellite CBERS 2B at a glance.

Uptime

6441

Days in orbit

Revolutions

≈ 14.4

Per day

Orbit

SSO

Sun Synchronous Orbit

Inclination

98.3

Latest

Satellite identification and parameters

Extended collection of information and parameters for CBERS 2B.

Object identification

Identified? True

Debris? False

Object name: CBERS 2B

International designator: 2007-042A

Object number (NORAD): 32062

Object ID (CCSDS): 32062

Country: PEOPLES REPUBLIC OF CHINA/BRAZIL (CHBZ)

Current information (Y/N): Y

RCS size: LARGE

Orbital parameters

Period: 99.919 minutes

Inclination: 98.3461 deg

SMA: 7132.785 km

Apoapsis: 777.688 km

Periapsis: 731.613 km

RAAN: 75.8168 deg

Eccentricy: 0.0032298

Argument of periapsis: 114.6267 deg

Mean anomaly: 299.4334 deg

Mean motion: 14.41166169 rev/day

Mean motion (dot): 0.00000333 rev/day2

B* drag term: 0.00011581 1/REarth

Two-line elements (TLE)

Creation date: May 8, 2025, 3:01 a.m.

Reference frame: TEME

Reference center: EARTH

Epoch: May 7, 2025, 7:42 p.m. UTC

TLE line 0: 0 CBERS 2B

TLE line 1: 1 32062U 07042A 25127.82141531 .00000333 00000-0 11581-3 0 9996

TLE line 2: 2 32062 98.3461 75.8168 0032298 114.6267 299.4334 14.41166169926293

Live tracking on map

Real-time ground track for satellite CBERS 2B.

In-orbit conjunctions

A list of the most updated potential collisions computed for object CBERS 2B.

Target Orbit TCA Probability of collision Miss distance Type
FENGYUN 1C DEB SSO 2025-03-23 21:19:15 0.0003215283 952.0 (m) DEBRIS
NOAA 16 DEB SSO 2025-01-21 14:54:14 0.0001769063 250.0 (m) DEBRIS
FENGYUN 1C DEB SSO 2024-10-24 10:56:12 0.0001836273 631.0 (m) DEBRIS
CBERS 1 DEB SSO 2024-09-26 05:12:08 0.0001288976 445.0 (m) DEBRIS
THORAD AGENA D DEB SSO 2024-09-13 06:10:03 0.0001018611 345.0 (m) DEBRIS

Associated space launch

Chinese-Brazilian Earth observation satellite

CBERS 2B was lifted into orbit during the mission ‘Long March 4B | Zi Yuan 1-2B’, on board a Long March 4B space rocket.

The launch took place on Sept. 19, 2007, 3:26 a.m. from Launch Complex 7.

For more information about the launch, click the button.

Launch to space Long March 4B | Zi Yuan 1-2B
Long March 4B | Zi Yuan 1-2B

Agency: N/A

Status: Launch Successful

Launch date: Sept. 19, 2007, 3:26 a.m. UTC

Rocket: Long March 4B

Launch pad: Launch Complex 7

Location: Taiyuan Satellite Launch Center, People's Republic of China

...

Latest news about this satellite

There are no fresh news available about this satellite. Check back as we update our databases every day.


Newsletter sign-up

Weekly statistics, charts and insights to help you stay on top of the space industry.